| time (UTC) | temp C | wind direction | speed KPH | gust KPH | rain 1hr cm | rain 24hr cm | rain mn cm | humidity % | barometer mb |
| 20260906053539 | 14 | 271 | 9.7 | 19.3 | 0.00 | 0.00 | 0.00 | 73 | 1003.8 |
| 20260906053100 | 14 | 280 | 9.7 | 24.1 | 0.00 | 0.00 | 0.00 | 73 | 1003.8 |
| 20260906052548 | 15 | 273 | 11.3 | 27.4 | 0.00 | 0.00 | 0.00 | 72 | 1004.0 |
| 20260906052040 | 15 | 269 | 16.1 | 33.8 | 0.00 | 0.00 | 0.00 | 71 | 1004.2 |
| 20260906051603 | 15 | 277 | 16.1 | 33.8 | 0.00 | 0.00 | 0.00 | 71 | 1004.4 |
| 20260906051039 | 15 | 297 | 12.9 | 22.5 | 0.00 | 0.00 | 0.00 | 72 | 1004.5 |
| 20260906050543 | 14 | 321 | 6.4 | 17.7 | 0.00 | 0.00 | 0.00 | 74 | 1004.4 |
| 20260906050056 | 15 | 284 | 8.0 | 25.7 | 0.00 | 0.00 | 0.00 | 73 | 1004.4 |
| 20260906045543 | 15 | 267 | 11.3 | 25.7 | 0.00 | 0.00 | 0.00 | 72 | 1004.5 |
| 20260906045039 | 15 | 286 | 12.9 | 29.0 | 0.00 | 0.00 | 0.00 | 71 | 1004.4 |
| 20260906044559 | 15 | 292 | 16.1 | 29.0 | 0.00 | 0.00 | 0.00 | 71 | 1004.4 |
| 20260906044040 | 15 | 284 | 16.1 | 29.0 | 0.00 | 0.00 | 0.00 | 71 | 1004.6 |
| 20260906043539 | 15 | 248 | 16.1 | 27.4 | 0.00 | 0.00 | 0.00 | 70 | 1004.6 |
| 20260906043056 | 15 | 275 | 17.7 | 27.4 | 0.00 | 0.00 | 0.00 | 70 | 1004.6 |
| 20260906042542 | 15 | 306 | 16.1 | 30.6 | 0.00 | 0.00 | 0.00 | 70 | 1004.8 |
| 20260906042039 | 15 | 283 | 14.5 | 30.6 | 0.00 | 0.00 | 0.00 | 69 | 1004.9 |
| 20260906041555 | 15 | 300 | 17.7 | 30.6 | 0.00 | 0.00 | 0.00 | 68 | 1005.0 |
| 20260906041038 | 15 | 277 | 16.1 | 30.6 | 0.00 | 0.00 | 0.00 | 68 | 1005.1 |
| 20260906040539 | 15 | 281 | 16.1 | 30.6 | 0.00 | 0.00 | 0.00 | 70 | 1005.1 |
| 20260906040105 | 16 | 279 | 17.7 | 25.7 | 0.00 | 0.00 | 0.00 | 68 | 1005.2 |
| 20260906035541 | 16 | 269 | 16.1 | 25.7 | 0.00 | 0.00 | 0.00 | 68 | 1005.1 |
| 20260906035036 | 16 | 283 | 16.1 | 24.1 | 0.00 | 0.00 | 0.00 | 67 | 1005.2 |
| 20260906034559 | 16 | 292 | 12.9 | 25.7 | 0.00 | 0.00 | 0.00 | 69 | 1005.1 |
| 20260906034038 | 16 | 292 | 12.9 | 25.7 | 0.00 | 0.00 | 0.00 | 68 | 1005.1 |
| 20260906033538 | 16 | 267 | 16.1 | 25.7 | 0.00 | 0.00 | 0.00 | 68 | 1005.3 |
| 20260906033058 | 16 | 270 | 16.1 | 27.4 | 0.00 | 0.00 | 0.00 | 67 | 1005.3 |
| 20260906032539 | 16 | 323 | 14.5 | 27.4 | 0.00 | 0.00 | 0.00 | 68 | 1005.4 |
| 20260906032041 | 16 | 267 | 16.1 | 30.6 | 0.00 | 0.00 | 0.00 | 68 | 1005.6 |
| 20260906031607 | 16 | 304 | 17.7 | 30.6 | 0.00 | 0.00 | 0.00 | 69 | 1005.7 |
| 20260906031040 | 16 | 275 | 19.3 | 27.4 | 0.00 | 0.00 | 0.00 | 68 | 1005.7 |
| 20260906030540 | 16 | 278 | 19.3 | 29.0 | 0.00 | 0.00 | 0.00 | 69 | 1005.7 |
| 20260906030059 | 16 | 268 | 17.7 | 29.0 | 0.00 | 0.00 | 0.00 | 68 | 1005.7 |
| 20260906025538 | 16 | 11 | 16.1 | 27.4 | 0.00 | 0.05 | 0.00 | 67 | 1005.6 |
| 20260906025040 | 16 | 271 | 16.1 | 27.4 | 0.00 | 0.05 | 0.00 | 67 | 1005.7 |
| 20260906024558 | 16 | 288 | 17.7 | 27.4 | 0.00 | 0.05 | 0.00 | 66 | 1005.7 |
| 20260906024039 | 16 | 281 | 14.5 | 27.4 | 0.00 | 0.05 | 0.00 | 66 | 1005.7 |
| 20260906023540 | 17 | 284 | 14.5 | 27.4 | 0.00 | 0.05 | 0.00 | 65 | 1005.6 |
| 20260906023055 | 17 | 280 | 12.9 | 25.7 | 0.00 | 0.05 | 0.00 | 68 | 1005.7 |
| 20260906022539 | 17 | 286 | 16.1 | 27.4 | 0.00 | 0.05 | 0.00 | 66 | 1005.7 |
| 20260906022042 | 17 | 347 | 11.3 | 40.2 | 0.00 | 0.05 | 0.00 | 65 | 1005.7 |
| 20260906021557 | 17 | 278 | 16.1 | 43.5 | 0.00 | 0.05 | 0.00 | 66 | 1005.8 |
| 20260906021038 | 17 | 274 | 24.1 | 43.5 | 0.00 | 0.05 | 0.00 | 64 | 1005.8 |
| 20260906020539 | 17 | 279 | 19.3 | 43.5 | 0.00 | 0.05 | 0.00 | 63 | 1006.0 |
| 20260906015539 | 17 | 279 | 17.7 | 29.0 | 0.00 | 0.05 | 0.00 | 66 | 1006.2 |
| 20260906015039 | 17 | 294 | 14.5 | 30.6 | 0.00 | 0.05 | 0.00 | 64 | 1006.3 |
| 20260906014552 | 17 | 269 | 17.7 | 30.6 | 0.00 | 0.05 | 0.00 | 67 | 1006.4 |
| 20260906014039 | 17 | 254 | 19.3 | 30.6 | 0.00 | 0.05 | 0.00 | 64 | 1006.5 |
| 20260906013539 | 17 | 262 | 14.5 | 27.4 | 0.00 | 0.05 | 0.00 | 68 | 1006.6 |
| 20260906013103 | 17 | 67 | 14.5 | 30.6 | 0.00 | 0.05 | 0.00 | 68 | 1006.7 |
| 20260906012543 | 17 | 265 | 14.5 | 30.6 | 0.00 | 0.05 | 0.00 | 68 | 1006.8 |
| 20260906012038 | 16 | 270 | 16.1 | 32.2 | 0.00 | 0.05 | 0.00 | 69 | 1006.8 |
| 20260906011550 | 16 | 286 | 17.7 | 32.2 | 0.00 | 0.05 | 0.00 | 68 | 1006.8 |
| 20260906011038 | 16 | 292 | 14.5 | 38.6 | 0.00 | 0.05 | 0.00 | 70 | 1006.9 |
| 20260906010539 | 16 | 296 | 22.5 | 38.6 | 0.00 | 0.05 | 0.00 | 68 | 1007.2 |
| 20260906010059 | 16 | 286 | 17.7 | 37.0 | 0.00 | 0.05 | 0.00 | 73 | 1007.5 |
| 20260906005540 | 16 | 283 | 17.7 | 37.0 | 0.00 | 0.05 | 0.00 | 73 | 1007.6 |
| 20260906005039 | 16 | 256 | 19.3 | 33.8 | 0.00 | 0.05 | 0.00 | 73 | 1007.8 |
| 20260906004554 | 16 | 301 | 20.9 | 33.8 | 0.00 | 0.05 | 0.00 | 71 | 1007.9 |
| 20260906004039 | 16 | 241 | 19.3 | 32.2 | 0.00 | 0.05 | 0.00 | 73 | 1008.0 |
| 20260906003539 | 16 | 290 | 20.9 | 33.8 | 0.00 | 0.05 | 0.00 | 73 | 1008.2 |
| 20260906003050 | 16 | 267 | 19.3 | 33.8 | 0.00 | 0.05 | 0.00 | 75 | 1008.4 |
| 20260906002540 | 15 | 284 | 19.3 | 30.6 | 0.00 | 0.05 | 0.00 | 75 | 1008.6 |
| 20260906002039 | 15 | 242 | 12.9 | 22.5 | 0.00 | 0.05 | 0.00 | 78 | 1008.6 |
| 20260906001547 | 15 | 260 | 14.5 | 24.1 | 0.00 | 0.05 | 0.00 | 78 | 1008.9 |
| 20260906001039 | 15 | 281 | 11.3 | 29.0 | 0.00 | 0.05 | 0.00 | 78 | 1009.0 |
| 20260906000539 | 15 | 266 | 12.9 | 29.0 | 0.00 | 0.05 | 0.00 | 77 | 1009.1 |
| 20260906000057 | 15 | 286 | 16.1 | 29.0 | 0.00 | 0.05 | 0.00 | 78 | 1009.2 |
| 20260905235539 | 15 | 298 | 17.7 | 29.0 | 0.00 | 0.05 | 0.00 | 79 | 1009.3 |
| 20260905235038 | 15 | 284 | 16.1 | 29.0 | 0.00 | 0.05 | 0.00 | 79 | 1009.3 |
| 20260905234553 | 15 | 309 | 17.7 | 27.4 | 0.00 | 0.05 | 0.00 | 79 | 1009.5 |
| 20260905234039 | 15 | 262 | 14.5 | 24.1 | 0.00 | 0.05 | 0.00 | 81 | 1009.6 |
| 20260905233539 | 14 | 279 | 12.9 | 27.4 | 0.00 | 0.05 | 0.00 | 80 | 1009.7 |
| 20260905233050 | 14 | 261 | 12.9 | 27.4 | 0.00 | 0.05 | 0.00 | 80 | 1009.9 |
| 20260905232539 | 14 | 254 | 12.9 | 22.5 | 0.00 | 0.05 | 0.00 | 81 | 1010.0 |
| 20260905232040 | 14 | 273 | 14.5 | 22.5 | 0.00 | 0.05 | 0.00 | 80 | 1010.0 |
| 20260905231559 | 14 | 310 | 12.9 | 19.3 | 0.00 | 0.05 | 0.00 | 81 | 1010.1 |
| 20260905231039 | 14 | 273 | 9.7 | 17.7 | 0.00 | 0.05 | 0.00 | 82 | 1010.1 |
| 20260905230539 | 13 | 292 | 9.7 | 24.1 | 0.00 | 0.05 | 0.00 | 81 | 1010.0 |
| 20260905230058 | 13 | 315 | 9.7 | 24.1 | 0.00 | 0.05 | 0.00 | 81 | 1010.2 |
| 20260905225539 | 13 | 276 | 14.5 | 24.1 | 0.00 | 0.05 | 0.00 | 80 | 1010.3 |
| 20260905225039 | 13 | 259 | 12.9 | 20.9 | 0.00 | 0.05 | 0.00 | 80 | 1010.2 |
| 20260905224602 | 13 | 294 | 12.9 | 20.9 | 0.00 | 0.05 | 0.00 | 81 | 1010.4 |
| 20260905224039 | 13 | 271 | 11.3 | 20.9 | 0.00 | 0.05 | 0.00 | 82 | 1010.4 |
| 20260905223538 | 13 | 263 | 12.9 | 20.9 | 0.00 | 0.05 | 0.00 | 83 | 1010.4 |
| 20260905223058 | 13 | 286 | 9.7 | 24.1 | 0.00 | 0.05 | 0.00 | 83 | 1010.6 |
| 20260905222539 | 13 | 277 | 14.5 | 24.1 | 0.00 | 0.05 | 0.00 | 82 | 1010.7 |
| 20260905222039 | 13 | 277 | 14.5 | 27.4 | 0.00 | 0.05 | 0.00 | 81 | 1010.7 |
| 20260905221602 | 13 | 285 | 14.5 | 27.4 | 0.00 | 0.05 | 0.00 | 82 | 1010.8 |
| 20260905221039 | 13 | 275 | 16.1 | 27.4 | 0.00 | 0.05 | 0.00 | 82 | 1011.0 |
| 20260905220539 | 13 | 260 | 16.1 | 24.1 | 0.00 | 0.05 | 0.00 | 82 | 1010.9 |
| 20260905220104 | 13 | 276 | 12.9 | 20.9 | 0.00 | 0.05 | 0.00 | 82 | 1010.9 |
| 20260905215539 | 13 | 283 | 11.3 | 19.3 | 0.00 | 0.05 | 0.00 | 83 | 1010.9 |
| 20260905215038 | 13 | 275 | 8.0 | 16.1 | 0.00 | 0.05 | 0.00 | 83 | 1011.1 |
| 20260905214556 | 13 | 261 | 8.0 | 16.1 | 0.00 | 0.05 | 0.00 | 83 | 1011.0 |
| 20260905214039 | 13 | 302 | 8.0 | 16.1 | 0.00 | 0.05 | 0.00 | 83 | 1011.0 |
| 20260905213540 | 13 | 270 | 8.0 | 16.1 | 0.00 | 0.05 | 0.00 | 83 | 1011.3 |
| 20260905213057 | 13 | 245 | 6.4 | 14.5 | 0.00 | 0.05 | 0.00 | 84 | 1011.4 |
| 20260905212540 | 13 | 225 | 4.8 | 11.3 | 0.00 | 0.05 | 0.00 | 84 | 1011.4 |
| 20260905212039 | 13 | 267 | 3.2 | 11.3 | 0.00 | 0.05 | 0.00 | 85 | 1011.4 |
| 20260905211626 | 12 | 226 | 1.6 | 11.3 | 0.00 | 0.05 | 0.00 | 85 | 1011.4 |
| 20260905211039 | 12 | 246 | 3.2 | 11.3 | 0.00 | 0.05 | 0.00 | 86 | 1011.4 |
| 20260905210539 | 12 | 244 | 1.6 | 6.4 | 0.00 | 0.05 | 0.00 | 86 | 1011.6 |
| 20260905210055 | 12 | 0 | 1.6 | 4.8 | 0.00 | 0.05 | 0.00 | 86 | 1011.6 |
| 20260905205539 | 12 | 245 | 1.6 | 6.4 | 0.00 | 0.05 | 0.00 | 87 | 1011.7 |
| 20260905205039 | 12 | 0 | 1.6 | 6.4 | 0.00 | 0.05 | 0.00 | 87 | 1011.7 |
| 20260905204605 | 12 | 245 | 3.2 | 6.4 | 0.00 | 0.05 | 0.00 | 88 | 1011.7 |
| 20260905204039 | 12 | 245 | 0.0 | 8.0 | 0.00 | 0.05 | 0.00 | 88 | 1011.7 |
| 20260905203539 | 12 | 245 | 1.6 | 8.0 | 0.00 | 0.05 | 0.00 | 88 | 1011.6 |
| 20260905203114 | 11 | 244 | 1.6 | 6.4 | 0.00 | 0.05 | 0.00 | 88 | 1011.8 |
| 20260905202539 | 11 | 244 | 0.0 | 4.8 | 0.00 | 0.05 | 0.00 | 88 | 1011.9 |
| 20260905202039 | 11 | 244 | 0.0 | 4.8 | 0.00 | 0.05 | 0.00 | 89 | 1011.9 |
| 20260905201558 | 11 | 244 | 0.0 | 4.8 | 0.00 | 0.05 | 0.00 | 89 | 1012.0 |
| 20260905201039 | 11 | 245 | 0.0 | 3.2 | 0.00 | 0.05 | 0.00 | 89 | 1012.0 |
| 20260905200539 | 11 | 244 | 0.0 | 3.2 | 0.00 | 0.05 | 0.00 | 89 | 1012.0 |
| 20260905195541 | 11 | 0 | 0.0 | 6.4 | 0.00 | 0.05 | 0.00 | 89 | 1012.3 |
| 20260905195039 | 11 | 0 | 0.0 | 6.4 | 0.00 | 0.05 | 0.00 | 89 | 1012.2 |
| 20260905194558 | 11 | 248 | 1.6 | 9.7 | 0.00 | 0.05 | 0.00 | 90 | 1012.1 |
| 20260905194040 | 11 | 0 | 0.0 | 9.7 | 0.00 | 0.05 | 0.00 | 90 | 1012.1 |
| 20260905193539 | 11 | 100 | 1.6 | 9.7 | 0.00 | 0.05 | 0.00 | 90 | 1012.0 |
| 20260905193054 | 10 | 270 | 1.6 | 9.7 | 0.00 | 0.05 | 0.00 | 90 | 1011.9 |
| 20260905192539 | 10 | 266 | 0.0 | 9.7 | 0.00 | 0.05 | 0.00 | 90 | 1011.9 |
| 20260905192040 | 10 | 265 | 1.6 | 9.7 | 0.00 | 0.05 | 0.00 | 90 | 1011.9 |
| 20260905191600 | 10 | 258 | 3.2 | 6.4 | 0.00 | 0.05 | 0.00 | 90 | 1011.9 |
| 20260905191039 | 10 | 257 | 1.6 | 6.4 | 0.00 | 0.05 | 0.00 | 90 | 1012.0 |
| 20260905190539 | 10 | 258 | 3.2 | 19.3 | 0.00 | 0.05 | 0.00 | 90 | 1012.0 |
| 20260905185539 | 10 | 268 | 1.6 | 8.0 | 0.00 | 0.05 | 0.00 | 91 | 1011.9 |
| 20260905185042 | 10 | 215 | 0.0 | 8.0 | 0.00 | 0.05 | 0.00 | 90 | 1011.9 |
| 20260905184610 | 10 | 273 | 0.0 | 11.3 | 0.00 | 0.05 | 0.00 | 90 | 1011.9 |
| 20260905184038 | 10 | 236 | 3.2 | 11.3 | 0.00 | 0.05 | 0.00 | 90 | 1011.8 |
| 20260905183540 | 10 | 268 | 6.4 | 11.3 | 0.00 | 0.05 | 0.00 | 91 | 1011.9 |
| 20260905183059 | 10 | 253 | 3.2 | 6.4 | 0.00 | 0.05 | 0.00 | 91 | 1011.7 |
| 20260905182539 | 10 | 253 | 1.6 | 4.8 | 0.00 | 0.05 | 0.00 | 91 | 1011.7 |
| 20260905182039 | 10 | 253 | 0.0 | 4.8 | 0.00 | 0.05 | 0.00 | 91 | 1011.8 |
| 20260905181604 | 10 | 0 | 0.0 | 4.8 | 0.00 | 0.05 | 0.00 | 91 | 1011.9 |
| 20260905181040 | 10 | 253 | 0.0 | 4.8 | 0.00 | 0.05 | 0.00 | 91 | 1012.0 |
| 20260905180539 | 10 | 252 | 0.0 | 8.0 | 0.00 | 0.05 | 0.00 | 91 | 1012.0 |
| 20260905180049 | 10 | 79 | 0.0 | 8.0 | 0.00 | 0.05 | 0.00 | 91 | 1012.1 |
| 20260905175539 | 10 | 0 | 0.0 | 3.2 | 0.00 | 0.05 | 0.00 | 91 | 1012.2 |
| 20260905175041 | 10 | 88 | 0.0 | 4.8 | 0.00 | 0.05 | 0.00 | 91 | 1012.2 |
| 20260905174556 | 10 | 88 | 0.0 | 4.8 | 0.00 | 0.05 | 0.00 | 91 | 1012.2 |
| 20260905174039 | 10 | 89 | 0.0 | 3.2 | 0.00 | 0.05 | 0.00 | 91 | 1012.0 |
| 20260905173542 | 11 | 92 | 0.0 | 6.4 | 0.00 | 0.05 | 0.00 | 91 | 1012.0 |
| 20260905173056 | 11 | 92 | 0.0 | 9.7 | 0.00 | 0.05 | 0.00 | 91 | 1011.9 |
| 20260905172539 | 11 | 78 | 1.6 | 9.7 | 0.00 | 0.05 | 0.00 | 91 | 1012.0 |
| 20260905172039 | 11 | 68 | 1.6 | 9.7 | 0.00 | 0.05 | 0.00 | 92 | 1012.0 |
| 20260905171553 | 11 | 278 | 1.6 | 14.5 | 0.00 | 0.05 | 0.00 | 92 | 1012.0 |
| 20260905171039 | 11 | 267 | 3.2 | 17.7 | 0.00 | 0.05 | 0.00 | 92 | 1012.0 |
| 20260905170539 | 11 | 294 | 6.4 | 17.7 | 0.00 | 0.05 | 0.00 | 93 | 1011.9 |
| 20260905170050 | 11 | 248 | 3.2 | 9.7 | 0.00 | 0.05 | 0.00 | 92 | 1011.8 |
| 20260905165542 | 11 | 261 | 0.0 | 6.4 | 0.00 | 0.05 | 0.00 | 92 | 1011.7 |
| 20260905165039 | 11 | 205 | 1.6 | 6.4 | 0.00 | 0.05 | 0.00 | 93 | 1011.8 |
| 20260905164559 | 11 | 266 | 0.0 | 6.4 | 0.00 | 0.05 | 0.00 | 92 | 1011.8 |
| 20260905164043 | 11 | 0 | 0.0 | 6.4 | 0.00 | 0.05 | 0.00 | 92 | 1011.6 |
| 20260905163536 | 11 | 0 | 0.0 | 6.4 | 0.00 | 0.05 | 0.00 | 92 | 1011.6 |
| 20260905163054 | 11 | 82 | 1.6 | 6.4 | 0.00 | 0.05 | 0.00 | 92 | 1011.5 |
| 20260905162540 | 11 | 258 | 1.6 | 6.4 | 0.00 | 0.05 | 0.00 | 92 | 1011.6 |
| 20260905162038 | 11 | 0 | 0.0 | 4.8 | 0.00 | 0.05 | 0.00 | 92 | 1011.5 |
| 20260905161553 | 11 | 0 | 0.0 | 9.7 | 0.00 | 0.05 | 0.00 | 92 | 1011.6 |
| 20260905161036 | 11 | 0 | 1.6 | 9.7 | 0.00 | 0.05 | 0.00 | 92 | 1011.5 |
| 20260905160539 | 11 | 92 | 1.6 | 11.3 | 0.00 | 0.05 | 0.00 | 92 | 1011.6 |
| 20260905160115 | 11 | 68 | 0.0 | 11.3 | 0.00 | 0.05 | 0.00 | 92 | 1011.6 |
| 20260905155539 | 11 | 260 | 1.6 | 11.3 | 0.00 | 0.05 | 0.00 | 92 | 1011.5 |
| 20260905155041 | 11 | 32 | 1.6 | 14.5 | 0.00 | 0.05 | 0.00 | 92 | 1011.6 |
| 20260905154602 | 11 | 275 | 6.4 | 14.5 | 0.00 | 0.05 | 0.00 | 92 | 1011.6 |
| 20260905154040 | 11 | 0 | 3.2 | 14.5 | 0.00 | 0.05 | 0.00 | 92 | 1011.7 |
| 20260905153540 | 11 | 271 | 3.2 | 14.5 | 0.00 | 0.05 | 0.00 | 92 | 1011.7 |
| 20260905153053 | 11 | 236 | 1.6 | 8.0 | 0.00 | 0.05 | 0.00 | 92 | 1011.8 |
| 20260905152539 | 11 | 236 | 3.2 | 9.7 | 0.00 | 0.05 | 0.00 | 92 | 1011.9 |
| 20260905152037 | 11 | 236 | 1.6 | 9.7 | 0.00 | 0.05 | 0.00 | 92 | 1012.1 |
| 20260905151601 | 11 | 240 | 0.0 | 4.8 | 0.00 | 0.05 | 0.00 | 92 | 1012.0 |
| 20260905151039 | 11 | 240 | 1.6 | 4.8 | 0.00 | 0.05 | 0.00 | 91 | 1012.0 |
| 20260905150539 | 11 | 219 | 0.0 | 3.2 | 0.00 | 0.05 | 0.00 | 91 | 1012.0 |
| 20260905150048 | 12 | 0 | 0.0 | 6.4 | 0.00 | 0.05 | 0.00 | 92 | 1012.1 |
| 20260905145540 | 12 | 0 | 0.0 | 8.0 | 0.00 | 0.05 | 0.00 | 92 | 1012.1 |
| 20260905145039 | 12 | 60 | 0.0 | 8.0 | 0.00 | 0.05 | 0.00 | 92 | 1012.2 |
| 20260905144553 | 12 | 257 | 1.6 | 8.0 | 0.00 | 0.05 | 0.00 | 92 | 1012.2 |
| 20260905144041 | 12 | 0 | 0.0 | 4.8 | 0.00 | 0.05 | 0.00 | 92 | 1012.4 |
| 20260905143539 | 12 | 79 | 0.0 | 6.4 | 0.00 | 0.05 | 0.00 | 92 | 1012.4 |
| 20260905143056 | 12 | 78 | 1.6 | 6.4 | 0.00 | 0.05 | 0.00 | 92 | 1012.7 |
| 20260905142542 | 11 | 108 | 0.0 | 8.0 | 0.00 | 0.05 | 0.00 | 91 | 1012.7 |
| 20260905142036 | 12 | 153 | 0.0 | 8.0 | 0.00 | 0.05 | 0.00 | 91 | 1012.7 |
| 20260905141551 | 12 | 67 | 0.0 | 8.0 | 0.00 | 0.05 | 0.00 | 91 | 1012.8 |
| 20260905141035 | 12 | 81 | 3.2 | 9.7 | 0.00 | 0.05 | 0.00 | 91 | 1012.7 |
| 20260905140542 | 12 | 273 | 1.6 | 11.3 | 0.00 | 0.05 | 0.00 | 92 | 1012.8 |
| 20260905140046 | 12 | 52 | 3.2 | 11.3 | 0.00 | 0.05 | 0.00 | 92 | 1012.8 |
| 20260905135537 | 12 | 275 | 1.6 | 11.3 | 0.00 | 0.05 | 0.00 | 92 | 1012.8 |
| 20260905135040 | 12 | 273 | 4.8 | 11.3 | 0.00 | 0.05 | 0.00 | 92 | 1012.7 |
| 20260905134605 | 12 | 263 | 3.2 | 11.3 | 0.00 | 0.05 | 0.00 | 91 | 1012.9 |
| 20260905134052 | 12 | 283 | 3.2 | 11.3 | 0.00 | 0.05 | 0.00 | 91 | 1012.9 |
| 20260905133539 | 12 | 270 | 3.2 | 14.5 | 0.00 | 0.05 | 0.00 | 90 | 1012.9 |
| 20260905133052 | 12 | 257 | 1.6 | 20.9 | 0.00 | 0.05 | 0.00 | 91 | 1013.0 |
| 20260905132539 | 12 | 290 | 4.8 | 20.9 | 0.00 | 0.05 | 0.00 | 91 | 1013.0 |
| 20260905132039 | 12 | 273 | 8.0 | 17.7 | 0.00 | 0.05 | 0.00 | 91 | 1013.1 |
| 20260905131557 | 12 | 265 | 6.4 | 16.1 | 0.00 | 0.05 | 0.00 | 90 | 1012.9 |
| 20260905131039 | 12 | 252 | 4.8 | 12.9 | 0.00 | 0.05 | 0.00 | 90 | 1012.9 |
| 20260905130540 | 12 | 278 | 4.8 | 12.9 | 0.00 | 0.05 | 0.00 | 90 | 1012.9 |
| 20260905130059 | 12 | 270 | 6.4 | 14.5 | 0.00 | 0.05 | 0.00 | 90 | 1012.9 |
| 20260905125538 | 12 | 293 | 8.0 | 14.5 | 0.00 | 0.05 | 0.00 | 91 | 1012.9 |
| 20260905125040 | 12 | 294 | 9.7 | 14.5 | 0.00 | 0.05 | 0.00 | 91 | 1012.8 |
| 20260905124558 | 11 | 283 | 6.4 | 12.9 | 0.00 | 0.05 | 0.00 | 91 | 1013.0 |
| 20260905124039 | 11 | 278 | 3.2 | 9.7 | 0.00 | 0.05 | 0.00 | 90 | 1013.1 |
| 20260905123539 | 11 | 278 | 1.6 | 3.2 | 0.00 | 0.05 | 0.00 | 89 | 1013.1 |
| 20260905123054 | 11 | 278 | 0.0 | 3.2 | 0.00 | 0.05 | 0.00 | 89 | 1013.1 |
| 20260905122540 | 12 | 278 | 3.2 | 6.4 | 0.00 | 0.05 | 0.00 | 89 | 1013.1 |
| 20260905122038 | 12 | 278 | 1.6 | 6.4 | 0.00 | 0.05 | 0.00 | 89 | 1013.0 |
| 20260905121601 | 12 | 278 | 0.0 | 6.4 | 0.00 | 0.05 | 0.00 | 89 | 1013.0 |
| 20260905121040 | 12 | 278 | 0.0 | 6.4 | 0.00 | 0.05 | 0.00 | 89 | 1013.0 |
| 20260905120539 | 12 | 278 | 0.0 | 12.9 | 0.00 | 0.05 | 0.00 | 89 | 1013.3 |
| 20260905120115 | 12 | 278 | 1.6 | 14.5 | 0.00 | 0.05 | 0.00 | 89 | 1013.3 |
| 20260905115539 | 12 | 32 | 6.4 | 19.3 | 0.00 | 0.05 | 0.05 | 89 | 1013.2 |
| 20260905115039 | 12 | 271 | 9.7 | 22.5 | 0.00 | 0.05 | 0.05 | 89 | 1013.2 |
| 20260905114555 | 12 | 244 | 11.3 | 22.5 | 0.00 | 0.05 | 0.05 | 90 | 1013.1 |
| 20260905114039 | 12 | 282 | 12.9 | 22.5 | 0.00 | 0.05 | 0.05 | 90 | 1013.1 |
| 20260905113540 | 12 | 257 | 11.3 | 19.3 | 0.00 | 0.05 | 0.05 | 90 | 1013.0 |
| 20260905113050 | 12 | 286 | 9.7 | 19.3 | 0.00 | 0.05 | 0.05 | 90 | 1012.9 |
| 20260905112541 | 11 | 236 | 4.8 | 14.5 | 0.00 | 0.05 | 0.05 | 89 | 1012.9 |
| 20260905112039 | 11 | 67 | 4.8 | 14.5 | 0.00 | 0.05 | 0.05 | 89 | 1012.8 |
| 20260905111611 | 12 | 248 | 1.6 | 14.5 | 0.00 | 0.05 | 0.05 | 89 | 1012.8 |
| 20260905111039 | 11 | 30 | 4.8 | 14.5 | 0.00 | 0.05 | 0.05 | 89 | 1013.0 |
| 20260905110539 | 11 | 268 | 4.8 | 14.5 | 0.00 | 0.05 | 0.05 | 89 | 1013.2 |
| 20260905110100 | 11 | 297 | 3.2 | 12.9 | 0.00 | 0.05 | 0.05 | 88 | 1013.1 |
| 20260905105536 | 12 | 253 | 6.4 | 12.9 | 0.00 | 0.05 | 0.05 | 88 | 1013.2 |
| 20260905105039 | 12 | 289 | 6.4 | 29.0 | 0.00 | 0.05 | 0.05 | 88 | 1013.3 |
| 20260905104553 | 12 | 55 | 11.3 | 40.2 | 0.00 | 0.05 | 0.05 | 88 | 1012.9 |
| 20260905104040 | 12 | 267 | 22.5 | 40.2 | 0.00 | 0.05 | 0.05 | 88 | 1012.8 |
| 20260905103539 | 12 | 275 | 20.9 | 30.6 | 0.00 | 0.05 | 0.05 | 87 | 1012.9 |
| 20260905103053 | 12 | 294 | 14.5 | 30.6 | 0.00 | 0.05 | 0.05 | 87 | 1013.1 |
| 20260905102539 | 12 | 271 | 17.7 | 30.6 | 0.00 | 0.05 | 0.05 | 86 | 1013.4 |
| 20260905102039 | 12 | 244 | 9.7 | 30.6 | 0.00 | 0.05 | 0.05 | 86 | 1013.6 |
| 20260905101547 | 12 | 249 | 16.1 | 30.6 | 0.00 | 0.05 | 0.05 | 85 | 1013.5 |
| 20260905101039 | 12 | 279 | 17.7 | 29.0 | 0.00 | 0.05 | 0.05 | 85 | 1013.2 |
| 20260905100539 | 12 | 278 | 16.1 | 29.0 | 0.00 | 0.05 | 0.05 | 85 | 1013.1 |
| 20260905100059 | 12 | 273 | 16.1 | 30.6 | 0.00 | 0.05 | 0.05 | 86 | 1013.1 |
| 20260905095539 | 12 | 296 | 16.1 | 30.6 | 0.00 | 0.05 | 0.05 | 87 | 1013.0 |
| 20260905095039 | 12 | 265 | 14.5 | 24.1 | 0.00 | 0.05 | 0.05 | 87 | 1013.0 |
| 20260905094558 | 12 | 275 | 12.9 | 19.3 | 0.00 | 0.05 | 0.05 | 87 | 1013.2 |
| 20260905094037 | 12 | 284 | 11.3 | 19.3 | 0.00 | 0.05 | 0.05 | 86 | 1013.1 |
| 20260905093540 | 12 | 273 | 9.7 | 20.9 | 0.00 | 0.05 | 0.05 | 86 | 1013.3 |
| 20260905093050 | 12 | 312 | 11.3 | 20.9 | 0.00 | 0.05 | 0.05 | 86 | 1013.2 |
| 20260905092544 | 11 | 44 | 9.7 | 19.3 | 0.00 | 0.05 | 0.05 | 87 | 1013.2 |
| 20260905092039 | 11 | 263 | 9.7 | 22.5 | 0.00 | 0.05 | 0.05 | 88 | 1013.1 |
| 20260905091621 | 11 | 266 | 9.7 | 22.5 | 0.00 | 0.05 | 0.05 | 88 | 1012.7 |
| 20260905091040 | 11 | 293 | 8.0 | 22.5 | 0.00 | 0.05 | 0.05 | 89 | 1012.4 |
| 20260905090539 | 11 | 271 | 6.4 | 16.1 | 0.00 | 0.05 | 0.05 | 89 | 1012.2 |
| 20260905090118 | 11 | 248 | 4.8 | 17.7 | 0.00 | 0.05 | 0.05 | 89 | 1012.3 |
| 20260905085540 | 11 | 289 | 9.7 | 20.9 | 0.00 | 0.05 | 0.05 | 89 | 1012.3 |
| 20260905085039 | 11 | 257 | 11.3 | 30.6 | 0.00 | 0.05 | 0.05 | 89 | 1012.5 |
| 20260905084605 | 11 | 276 | 17.7 | 33.8 | 0.00 | 0.05 | 0.05 | 89 | 1012.1 |
| 20260905084040 | 11 | 309 | 20.9 | 38.6 | 0.00 | 0.05 | 0.05 | 89 | 1012.5 |
| 20260905083540 | 11 | 268 | 20.9 | 38.6 | 0.00 | 0.05 | 0.05 | 90 | 1012.7 |
| 20260905083050 | 11 | 297 | 20.9 | 38.6 | 0.00 | 0.05 | 0.05 | 90 | 1013.0 |
| 20260905082540 | 11 | 270 | 17.7 | 30.6 | 0.00 | 0.05 | 0.05 | 90 | 1013.2 |
| 20260905082040 | 12 | 298 | 19.3 | 30.6 | 0.00 | 0.05 | 0.05 | 90 | 1013.6 |
| 20260905081546 | 12 | 275 | 19.3 | 29.0 | 0.00 | 0.05 | 0.05 | 90 | 1013.9 |
| 20260905081039 | 11 | 288 | 14.5 | 27.4 | 0.00 | 0.05 | 0.05 | 91 | 1013.9 |
| 20260905080543 | 12 | 263 | 17.7 | 29.0 | 0.00 | 0.05 | 0.05 | 90 | 1014.0 |
| 20260905080101 | 12 | 283 | 17.7 | 29.0 | 0.00 | 0.05 | 0.05 | 90 | 1013.9 |
| 20260905075540 | 12 | 279 | 17.7 | 29.0 | 0.00 | 0.05 | 0.05 | 89 | 1013.9 |
| 20260905075040 | 12 | 267 | 16.1 | 29.0 | 0.00 | 0.05 | 0.05 | 87 | 1014.0 |
| 20260905074551 | 12 | 272 | 20.9 | 32.2 | 0.00 | 0.05 | 0.05 | 86 | 1013.8 |
| 20260905074040 | 12 | 301 | 20.9 | 32.2 | 0.00 | 0.05 | 0.05 | 86 | 1013.6 |
| 20260905073552 | 12 | 260 | 19.3 | 32.2 | 0.00 | 0.05 | 0.05 | 86 | 1013.5 |
| 20260905073055 | 12 | 269 | 20.9 | 32.2 | 0.00 | 0.05 | 0.05 | 85 | 1013.4 |
| 20260905072540 | 12 | 288 | 19.3 | 29.0 | 0.00 | 0.05 | 0.05 | 84 | 1013.2 |
| 20260905072041 | 12 | 264 | 14.5 | 40.2 | 0.00 | 0.05 | 0.05 | 83 | 1013.3 |
| 20260905071558 | 12 | 295 | 19.3 | 40.2 | 0.00 | 0.05 | 0.05 | 83 | 1013.3 |
| 20260905071043 | 12 | 308 | 22.5 | 37.0 | 0.00 | 0.05 | 0.05 | 83 | 1013.1 |
| 20260905070539 | 12 | 273 | 20.9 | 37.0 | 0.00 | 0.05 | 0.05 | 84 | 1013.0 |
| 20260905070101 | 12 | 248 | 19.3 | 43.5 | 0.00 | 0.05 | 0.05 | 83 | 1012.9 |
| 20260905065541 | 12 | 232 | 19.3 | 43.5 | 0.00 | 0.05 | 0.05 | 82 | 1012.8 |
| 20260905065039 | 12 | 311 | 24.1 | 40.2 | 0.00 | 0.05 | 0.05 | 81 | 1012.5 |
| 20260905064550 | 12 | 300 | 24.1 | 40.2 | 0.00 | 0.05 | 0.05 | 81 | 1012.4 |
| 20260905064038 | 12 | 293 | 27.4 | 40.2 | 0.00 | 0.05 | 0.05 | 80 | 1012.4 |
| 20260905063539 | 12 | 319 | 24.1 | 48.3 | 0.00 | 0.05 | 0.05 | 81 | 1012.3 |
| 20260905063048 | 12 | 292 | 20.9 | 48.3 | 0.00 | 0.05 | 0.05 | 82 | 1012.5 |
| 20260905062538 | 12 | 284 | 25.7 | 48.3 | 0.00 | 0.05 | 0.05 | 82 | 1012.5 |
| 20260905062039 | 12 | 281 | 19.3 | 41.8 | 0.00 | 0.05 | 0.05 | 83 | 1012.5 |
| 20260905061619 | 12 | 238 | 19.3 | 41.8 | 0.00 | 0.05 | 0.05 | 83 | 1012.6 |
| 20260905061039 | 12 | 280 | 22.5 | 41.8 | 0.00 | 0.05 | 0.05 | 83 | 1012.4 |
| 20260905060539 | 12 | 245 | 24.1 | 43.5 | 0.00 | 0.05 | 0.05 | 83 | 1012.4 |
| 20260905060112 | 12 | 260 | 22.5 | 43.5 | 0.00 | 0.05 | 0.05 | 83 | 1012.3 |
| 20260905055539 | 12 | 289 | 19.3 | 43.5 | 0.00 | 0.05 | 0.05 | 83 | 1012.4 |
| 20260905055039 | 12 | 275 | 20.9 | 45.1 | 0.00 | 0.05 | 0.05 | 83 | 1012.4 |
| 20260905054555 | 12 | 306 | 24.1 | 45.1 | 0.00 | 0.05 | 0.05 | 84 | 1012.4 |
| 20260905054039 | 12 | 264 | 25.7 | 51.5 | 0.00 | 0.05 | 0.05 | 84 | 1012.5 |